Weather History for Olathe, KS

Change the Weather History Date:

Wednesday, April 17, 2013

  Actual Average Record
Temperature  
Mean Temperature 49 °F 56 °F  
Max Temperature 52 °F 66 °F 87 °F (1981)
Min Temperature 45 °F 46 °F 27 °F (1953)
Degree Days  
Heating Degree Days 16 10  
Month to date heating degree days 267 211  
Since 1 July heating degree days 4745 4728  
Cooling Degree Days 0 1  
Month to date cooling degree days 0 9  
Year to date cooling degree days 1 10  
Moisture  
Dew Point 47 °F    
Average Humidity 88    
Maximum Humidity 100    
Minimum Humidity 76    
Precipitation  
Precipitation 0.54 in 0.14 in 1.15 in (1968)
Month to date precipitation 2.27 1.91  
Year to date precipitation 7.47 7.23  
Sea Level Pressure  
Sea Level Pressure 29.81 in    
Wind  
Wind Speed 8 mph (NE)    
Max Wind Speed 15 mph    
Max Gust Speed 20 mph    
Visibility 3 miles    
Events Fog , Rain , Thunderstorm    
T = Trace of Precipitation, MM = Missing Value Source: NWS Daily Summary

Daily Weather History Graph

Daily Weather History Graph

Search for Another Location

Airport:

Trip Planner

Search our weather history database for the weather conditions in past years. The results will help you decide how hot, cold, wet, or windy it might be!

Date:

Astronomy

Apr. 17, 2013 Rise Set
Actual Time 6:39 AM CDT 7:58 PM CDT
Civil Twilight 6:11 AM CDT 8:25 PM CDT
Nautical Twilight 5:38 AM CDT 8:59 PM CDT
Astronomical Twilight 5:03 AM CDT 9:34 PM CDT
Moon 11:55 AM CDT (4/17) 1:35 AM CDT (4/17)
Length of Visible Light 14h 14m
Length of Day
13h 18m
Waxing Crescent, 42% of the Moon is Illuminated
Apr 17
Waxing Crescent
Apr 18
First Quarter
Apr 25
Full
May 2
Last Quarter
May 9
New

Hourly Weather History & Observations

Time (CDT) Temp. Windchill Dew Point Humidity Pressure Visibility Wind Dir Wind Speed Gust Speed Precip Events Conditions
12:53 AM 45.0 °F 38.9 °F 37.0 °F 74% 30.07 in 10.0 mi East 12.7 mph - N/A   Overcast
1:33 AM 44.6 °F 39.2 °F 37.4 °F 76% 30.04 in 10.0 mi East 10.4 mph - N/A   Overcast
1:53 AM 45.0 °F 40.6 °F 37.9 °F 76% 30.04 in 10.0 mi East 8.1 mph - N/A   Overcast
2:53 AM 45.0 °F 39.3 °F 39.0 °F 80% 30.00 in 10.0 mi East 11.5 mph - N/A   Overcast
3:53 AM 45.0 °F 39.7 °F 39.9 °F 82% 29.96 in 10.0 mi East 10.4 mph - N/A   Overcast
4:53 AM 46.0 °F 41.4 °F 42.1 °F 86% 29.94 in 9.0 mi East 9.2 mph - N/A   Overcast
5:53 AM 46.0 °F 41.4 °F 43.0 °F 89% 29.92 in 6.0 mi East 9.2 mph - N/A   Overcast
6:06 AM 46.4 °F 42.4 °F 42.8 °F 87% 29.91 in 5.0 mi East 8.1 mph - N/A   Overcast
6:30 AM 44.6 °F 38.8 °F 44.6 °F 100% 29.90 in 2.0 mi ESE 11.5 mph - N/A   Overcast
6:37 AM 44.6 °F 39.2 °F 44.6 °F 100% 29.89 in 1.2 mi East 10.4 mph - N/A   Overcast
6:53 AM 45.0 °F 39.3 °F 45.0 °F 100% 29.90 in 0.8 mi ESE 11.5 mph 18.4 mph N/A   Overcast
7:03 AM 44.6 °F 38.8 °F 44.6 °F 100% 29.89 in 0.2 mi ESE 11.5 mph - N/A Fog Fog
7:53 AM 46.0 °F 41.9 °F 46.0 °F 100% 29.91 in 0.2 mi ESE 8.1 mph - N/A Fog Fog
9:53 AM 48.9 °F - 48.9 °F 100% 29.88 in 0.2 mi ESE 6.9 mph - 0.00 in Fog , Rain Light Rain
10:16 AM 48.2 °F - 48.2 °F 100% 29.86 in 1.0 mi ESE 6.9 mph - 0.01 in Rain Light Rain
10:47 AM 50.0 °F - 50.0 °F 100% 29.84 in 1.2 mi ESE 6.9 mph - 0.04 in Rain , Thunderstorm Light Thunderstorms and Rain
10:53 AM 50.0 °F - 50.0 °F 100% 29.84 in 1.2 mi East 5.8 mph - 0.06 in Rain , Thunderstorm Light Thunderstorms and Rain
10:59 AM 51.8 °F - 50.0 °F 94% 29.84 in 2.0 mi NNE 6.9 mph - 0.00 in Rain , Thunderstorm Light Thunderstorms and Rain
11:11 AM 50.0 °F - 48.2 °F 94% 29.84 in 1.2 mi NNE 6.9 mph - 0.09 in Rain , Thunderstorm Light Thunderstorms and Rain
11:21 AM 50.0 °F - 50.0 °F 100% 29.85 in 2.0 mi North 10.4 mph - 0.10 in Rain , Thunderstorm Light Thunderstorms and Rain
11:27 AM 50.0 °F - 50.0 °F 100% 29.84 in 4.0 mi NE 5.8 mph - 0.10 in Rain , Thunderstorm Light Thunderstorms and Rain
11:33 AM 50.0 °F - 50.0 °F 100% 29.84 in 1.8 mi NNE 6.9 mph - 0.16 in Rain , Thunderstorm Heavy Thunderstorms and Rain
11:44 AM 50.0 °F - 50.0 °F 100% 29.84 in 3.0 mi NNE 6.9 mph - 0.17 in Rain , Thunderstorm Light Thunderstorms and Rain
11:53 AM 50.0 °F - 50.0 °F 100% 29.84 in 4.0 mi ENE 3.5 mph - 0.17 in Rain , Thunderstorm Light Rain
12:02 PM 51.8 °F - 50.0 °F 94% 29.83 in 4.0 mi NE 4.6 mph - 0.01 in Rain Light Rain
12:32 PM 51.8 °F - 51.8 °F 100% 29.81 in 2.5 mi East 5.8 mph - 0.01 in Rain Light Rain
12:53 PM 52.0 °F - 51.1 °F 97% 29.81 in 2.0 mi North 4.6 mph - 0.01 in   Overcast
1:14 PM 51.8 °F - 51.8 °F 100% 29.79 in 1.8 mi North 6.9 mph - N/A   Overcast
1:43 PM 51.8 °F - 51.8 °F 100% 29.78 in 1.2 mi NE 9.2 mph - N/A   Overcast
1:53 PM 52.0 °F - 51.1 °F 97% 29.77 in 1.0 mi NNE 9.2 mph - N/A   Overcast
2:22 PM 51.8 °F - 51.8 °F 100% 29.76 in 0.8 mi NE 10.4 mph - N/A   Overcast
2:49 PM 51.8 °F - 51.8 °F 100% 29.74 in 0.5 mi NE 5.8 mph - N/A Fog Fog
2:53 PM 51.1 °F - 51.1 °F 100% 29.75 in 0.5 mi NNE 5.8 mph - N/A Fog Fog
3:53 PM 51.1 °F - 50.0 °F 96% 29.71 in 0.2 mi NNE 6.9 mph - N/A Fog Fog
4:53 PM 51.1 °F - 51.1 °F 100% 29.70 in 0.2 mi NE 6.9 mph - N/A Fog Fog
5:53 PM 51.1 °F - 51.1 °F 100% 29.68 in 0.2 mi North 5.8 mph - N/A Fog Fog
6:53 PM 50.0 °F - 50.0 °F 100% 29.66 in 0.2 mi North 8.1 mph - 0.00 in Fog Fog
7:53 PM 48.9 °F - 48.9 °F 100% 29.65 in 0.2 mi NNE 8.1 mph - 0.01 in Fog Fog
8:53 PM 46.9 °F - 46.9 °F 100% 29.69 in 0.8 mi NNW 9.2 mph - 0.00 in Rain Light Rain
9:14 PM 46.4 °F 41.1 °F 46.4 °F 100% 29.68 in 1.2 mi NW 11.5 mph - 0.00 in   Overcast
9:17 PM 46.4 °F 41.1 °F 46.4 °F 100% 29.67 in 2.0 mi NNW 11.5 mph - 0.00 in   Overcast
9:26 PM 46.4 °F 41.1 °F 46.4 °F 100% 29.68 in 3.0 mi North 11.5 mph - 0.00 in   Overcast
9:53 PM 46.0 °F 41.4 °F 46.0 °F 100% 29.68 in 6.0 mi North 9.2 mph - 0.01 in Rain Light Rain
10:09 PM 46.4 °F 41.5 °F 46.4 °F 100% 29.68 in 8.0 mi NNW 10.4 mph - 0.00 in Thunderstorm Overcast
10:32 PM 46.4 °F 41.5 °F 46.4 °F 100% 29.67 in 6.0 mi North 10.4 mph - 0.07 in Rain , Thunderstorm Light Thunderstorms and Rain
10:53 PM 46.0 °F 41.0 °F 46.0 °F 100% 29.68 in 8.0 mi NNW 10.4 mph - 0.15 in Rain , Thunderstorm Light Thunderstorms and Rain
11:31 PM 46.4 °F 41.9 °F 46.4 °F 100% 29.67 in 9.0 mi East 9.2 mph 17.3 mph 0.01 in   Overcast
11:53 PM 46.9 °F - 46.9 °F 100% 29.65 in 9.0 mi NE 11.5 mph - 0.01 in   Overcast